Location: Bergnershof
(48.9468°N, 10.9431°E)
Time: 11:22:20
(UTC+00:00)

CZ-4B R/B - Pass Details

Date: 03 March 2021
Orbit: 388 x 455 km, 97.6° (Epoch: 13 April)

Event Time Altitude Azimuth Distance (km) Brightness Sun altitude
Rises 18:39:41 0° 356° (N) 2,294 5.2 -16.6°
Maximum altitude 18:44:01 14° 296° (WNW) 1,199 4.6 -17.3°
Drops below altitude 10° 18:45:46 10° 261° (W) 1,436 5.0 -17.6°
Sets 18:48:22 0° 236° (SW) 2,297 5.7 -18.0°
